Regional Weather Roundup
Issued by NWS New Orleans/Baton Rouge, LA

Home | Current Version | Previous Version | Text Only | Print | Product List | Glossary On
Versions: 1 2 3 4 5 6 7 8 9 10 11 12 13 14 15 16 17 18 19 20 21 22 23 24 25 26 27
000
ASUS44 KLIX 290913
RWRLIX
NEW ORLEANS REGIONAL WEATHER ROUNDUP
NATIONAL WEATHER SERVICE NEW ORLEANS LA
400 AM CDT WED MAR 29 2017

NOTE: "FAIR" INDICATES FEW OR NO CLOUDS BELOW 12,000 FEET WITH NO
      SIGNIFICANT WEATHER AND/OR OBSTRUCTIONS TO VISIBILITY.
      SKY/WX - SKY CONDITION AND SIGNIFICANT WEATHER.
      TMP - AIR TEMPERATURE.     DP    - DEWPOINT TEMPERATURE.
      RH  - RELATIVE HUMIDITY.   PRES  - PRESSURE.
      HI  - HEAT INDEX.          WCI   - WIND CHILL INDEX.

*  THESE STATIONS ARE NOT NWS OR FAA STATIONS AND ARE NOT UNDER
   NWS QUALITY CONTROL.

LAZ038-040-048-061>063-065>067-069-291000-
SOUTHEAST LOUISIANA

CITY           SKY/WX    TMP DP  RH WIND       PRES   REMARKS
N.O. INTL ARPT PTCLDY    70  68  93 SE9       29.86F
N.O. LAKEFRONT CLEAR     71  68  90 SE8       29.87F
N.O. DOWNTOWN* NOT AVBL
RESERVE*         N/A     70  68  94 SE8       29.86F
SLIDELL        CLEAR     69  67  93 SE5       29.88F
BATON ROUGE    CLOUDY    68  67  96 E9        29.84F FOG
BOOTHVILLE     CLEAR     69  69 100 SE8       29.91F
BELLE CHASSE   CLEAR    N/A N/A N/A SE12      29.87F
BOGALUSA*      NOT AVBL
GALLIANO*      SUNNY     71  65  81 SE10      29.87F
NEW ROADS*       N/A     68  67  95 SE7       29.83F
GONZALES*      NOT AVBL
HAMMOND*       CLOUDY    70  66  88 E5        29.87S
HOUMA*         PTCLDY    71  67  88 SE14      29.86F
PORT FOURCHON* MOSUNNY   73  68  83 SE15G23   29.87F

$$

MSZ070-080>082-291000-
SOUTHERN MISSISSIPPI

CITY           SKY/WX    TMP DP  RH WIND       PRES   REMARKS
MCCOMB         CLOUDY    68  66  93 SE10      29.87F FOG
GULFPORT       PTCLDY    72  68  87 SE10      29.90F
BILOXI         PTCLDY    72  66  81 S10       29.90F
PASCAGOULA     FOG       60  59  96 CALM      29.92F VSB 1/2

$$

COASTAL OBSERVATIONS
LAKE AND NEARSHORE STATIONS

STATION/POSITION TIME  TEMP    WIND        PRES    WAVE
                       AIR SEA DIR/SP/G            HT/PER
                 (UTC) (F)     (DEG/KT/KT) (MB)    (FT/S)
PASCAGOULA       0842   72     150/  6/  9 1012.9
WAVELAND YACHT   0842   73 76  160/ 14/ 17 1012.0
GRAND ISLE       0842   72 76  160/ 11/ 16 1011.5
SOUTHWEST PASS   0842          150/ 10/ 14   N/A
NEW CANAL        0842   71 72  150/  3/  6 1011.3
SHELL BEACH      0842   71 76  150/ 10/ 14 1011.9

OFFSHORE STATIONS

STATION/POSITION TIME  TEMP    WIND        PRES    WAVE
                       AIR SEA DIR/SP/G            HT/PER
                 (UTC) (F)     (DEG/KT/KT) (MB)    (FT/S)
64 S DAUPHIN ISL 0850   72 74  150/ 14/ 17 1013.5    3/ 5

$$





USA.gov is the U.S. government's official web portal to all federal, state and local government web resources and services.